Weather History for Coleman, TX

Change the Weather History Date:

Sunday, April 6, 2014

  Actual Average (KABI) Record (KABI)
Temperature  
Mean Temperature 53 °F 62 °F  
Max Temperature 59 °F 75 °F 96 °F (2000)
Min Temperature 47 °F 49 °F 29 °F (1994)
Degree Days  
Heating Degree Days 12 5  
Month to date heating degree days 34  
Since 1 July heating degree days 2465  
Cooling Degree Days 0 2  
Month to date cooling degree days 12  
Year to date cooling degree days 46  
Growing Degree Days 3 (Base 50)    
Moisture  
Dew Point 44 °F    
Average Humidity 74    
Maximum Humidity 91    
Minimum Humidity 48    
Precipitation  
Precipitation 0.02 in 0.05 in 1.07 in (1942)
Month to date precipitation 0.26  
Year to date precipitation 4.38  
Sea Level Pressure  
Sea Level Pressure 29.84 in    
Wind  
Wind Speed 9 mph (ENE)    
Max Wind Speed 16 mph    
Max Gust Speed 23 mph    
Visibility 9 miles    
Events Rain , Thunderstorm    
T = Trace of Precipitation, MM = Missing Value Source: NWS Daily Summary

Daily Weather History Graph

Daily Weather History Graph

Search for Another Location

Airport:

Trip Planner

Search our weather history database for the weather conditions in past years. The results will help you decide how hot, cold, wet, or windy it might be!

Date:

Astronomy

Apr. 06, 2014 Rise Set
Actual Time 7:19 AM CDT 8:00 PM CDT
Civil Twilight 6:55 AM CDT 8:25 PM CDT
Nautical Twilight 6:26 AM CDT 8:54 PM CDT
Astronomical Twilight 5:56 AM CDT 9:24 PM CDT
Moon 12:33 PM CDT (4/6) 1:46 AM CDT (4/6)
Length of Visible Light 13h 30m
Length of Day
12h 40m
Waxing Crescent, 44% of the Moon is Illuminated
Apr 6
Waxing Crescent
Apr 7
First Quarter
Apr 15
Full
Apr 22
Last Quarter
Apr 29
New

Hourly Weather History & Observations

Time (CDT) Temp. Dew Point Humidity Pressure Visibility Wind Dir Wind Speed Gust Speed Precip Events Conditions
12:15 AM 56.3 °F 36.9 °F 48% 29.91 in 10.0 mi SE 9.2 mph 17.3 mph N/A   Overcast
12:35 AM 55.9 °F 37.0 °F 49% 29.89 in 10.0 mi ESE 11.5 mph - N/A   Overcast
12:55 AM 55.2 °F 39.0 °F 54% 29.90 in 10.0 mi SE 6.9 mph - N/A   Light Drizzle
1:15 AM 55.0 °F 38.7 °F 54% 29.89 in 10.0 mi SE 9.2 mph - N/A   Overcast
1:35 AM 55.2 °F 38.5 °F 53% 29.90 in 10.0 mi SE 10.4 mph - N/A   Overcast
1:55 AM 55.0 °F 38.8 °F 54% 29.90 in 10.0 mi SE 8.1 mph - N/A   Overcast
2:15 AM 55.0 °F 38.8 °F 54% 29.89 in 10.0 mi ESE 12.7 mph - N/A   Overcast
2:35 AM 54.9 °F 39.4 °F 56% 29.86 in 10.0 mi ESE 12.7 mph - N/A   Overcast
2:55 AM 54.7 °F 40.1 °F 58% 29.88 in 10.0 mi ESE 5.8 mph - N/A   Overcast
3:15 AM 54.5 °F 40.5 °F 59% 29.87 in 10.0 mi East 8.1 mph - N/A   Overcast
3:35 AM 54.1 °F 41.0 °F 61% 29.86 in 10.0 mi ESE 12.7 mph - N/A   Overcast
3:55 AM 54.0 °F 41.0 °F 62% 29.86 in 10.0 mi East 9.2 mph - N/A   Overcast
4:15 AM 54.0 °F 40.6 °F 61% 29.85 in 10.0 mi East 10.4 mph - N/A   Overcast
4:35 AM 53.8 °F 40.6 °F 61% 29.85 in 10.0 mi East 9.2 mph - N/A   Overcast
4:55 AM 53.6 °F 40.6 °F 62% 29.84 in 10.0 mi East 8.1 mph - N/A   Overcast
5:15 AM 53.6 °F 40.8 °F 62% 29.84 in 10.0 mi East 6.9 mph - N/A   Overcast
5:35 AM 53.6 °F 41.0 °F 62% 29.85 in 10.0 mi East 9.2 mph - N/A Thunderstorm Overcast
5:55 AM 53.6 °F 41.0 °F 62% 29.86 in 10.0 mi ENE 5.8 mph - N/A   Overcast
6:15 AM 53.4 °F 41.2 °F 63% 29.85 in 10.0 mi ENE 8.1 mph - N/A   Overcast
6:35 AM 52.9 °F 41.9 °F 66% 29.84 in 10.0 mi ENE 8.1 mph - N/A   Overcast
6:55 AM 52.0 °F 42.1 °F 69% 29.84 in 10.0 mi NE 9.2 mph - N/A   Overcast
7:15 AM 50.7 °F 43.0 °F 75% 29.84 in 10.0 mi NE 11.5 mph - N/A   Overcast
7:35 AM 50.0 °F 42.8 °F 76% 29.84 in 10.0 mi NE 12.7 mph - N/A   Overcast
7:55 AM 49.5 °F 42.8 °F 78% 29.85 in 10.0 mi NE 11.5 mph - N/A   Overcast
8:15 AM 49.3 °F 42.6 °F 78% 29.85 in 10.0 mi NE 13.8 mph - N/A   Overcast
8:35 AM 48.9 °F 42.6 °F 79% 29.87 in 10.0 mi NE 9.2 mph - N/A   Overcast
8:55 AM 48.2 °F 43.2 °F 83% 29.87 in 5.0 mi NE 9.2 mph - N/A Rain , Thunderstorm Light Thunderstorms and Rain
9:15 AM 47.7 °F 43.3 °F 85% 29.87 in 5.0 mi NE 9.2 mph - N/A   Haze
9:35 AM 47.3 °F 43.3 °F 86% 29.86 in 4.0 mi ENE 10.4 mph - N/A   Overcast
9:55 AM 47.3 °F 44.2 °F 89% 29.86 in 3.0 mi NE 9.2 mph - N/A   Overcast
10:15 AM 47.3 °F 44.6 °F 90% 29.86 in 3.0 mi NE 8.1 mph - N/A   Overcast
10:35 AM 47.3 °F 44.4 °F 90% 29.86 in 5.0 mi NE 8.1 mph - N/A   Overcast
10:55 AM 48.4 °F 43.9 °F 84% 29.85 in 7.0 mi NE 8.1 mph - N/A   Overcast
11:15 AM 48.4 °F 43.7 °F 84% 29.86 in 10.0 mi ENE 8.1 mph - N/A   Overcast
11:35 AM 48.7 °F 45.0 °F 87% 29.87 in 7.0 mi ENE 6.9 mph - N/A   Drizzle
11:55 AM 48.6 °F 45.5 °F 89% 29.87 in 5.0 mi NE 4.6 mph - N/A   Light Drizzle
12:15 PM 48.4 °F 45.5 °F 90% 29.87 in 5.0 mi NE 6.9 mph - N/A   Drizzle
12:35 PM 48.4 °F 45.5 °F 90% 29.87 in 5.0 mi NNE 8.1 mph - 0.01 in   Drizzle
12:55 PM 48.4 °F 45.9 °F 91% 29.87 in 5.0 mi NNE 9.2 mph - 0.01 in   Drizzle
1:15 PM 48.7 °F 46.0 °F 90% 29.85 in 5.0 mi North 9.2 mph - N/A   Drizzle
1:35 PM 48.4 °F 45.7 °F 90% 29.86 in 7.0 mi ENE 6.9 mph - N/A   Drizzle
1:55 PM 48.6 °F 46.0 °F 91% 29.87 in 5.0 mi NNE 6.9 mph - 0.01 in   Drizzle
2:15 PM 48.9 °F 46.2 °F 90% 29.85 in 7.0 mi NNE 10.4 mph - N/A   Light Drizzle
2:35 PM 49.1 °F 45.9 °F 89% 29.84 in 10.0 mi NNE 10.4 mph - N/A   Overcast
2:55 PM 50.0 °F 46.0 °F 86% 29.84 in 10.0 mi North 10.4 mph - N/A   Overcast
3:15 PM 50.4 °F 46.4 °F 86% 29.83 in 10.0 mi North 11.5 mph - N/A   Overcast
3:35 PM 51.4 °F 46.2 °F 82% 29.83 in 7.0 mi North 10.4 mph - N/A   Overcast
3:55 PM 51.3 °F 46.8 °F 85% 29.78 in 7.0 mi NE 15.0 mph - N/A   Overcast
4:15 PM 52.3 °F 47.7 °F 84% 29.77 in 5.0 mi ENE 16.1 mph 23.0 mph N/A   Mostly Cloudy
4:35 PM 54.7 °F 48.2 °F 79% 29.76 in 10.0 mi ENE 15.0 mph - N/A   Scattered Clouds
4:55 PM 54.9 °F 48.2 °F 78% 29.76 in 10.0 mi ENE 16.1 mph 20.7 mph N/A   Scattered Clouds
5:15 PM 56.5 °F 48.7 °F 75% 29.75 in 10.0 mi ENE 12.7 mph - N/A   Scattered Clouds
5:35 PM 58.1 °F 48.4 °F 70% 29.76 in 10.0 mi ENE 9.2 mph - N/A   Clear
5:55 PM 58.3 °F 47.5 °F 67% 29.77 in 10.0 mi ENE 8.1 mph - N/A   Clear
6:15 PM 59.4 °F 47.5 °F 65% 29.78 in 10.0 mi NE 6.9 mph - N/A   Clear
6:35 PM 58.1 °F 47.1 °F 67% 29.79 in 10.0 mi NE 4.6 mph - N/A   Clear
6:55 PM 57.9 °F 47.1 °F 67% 29.79 in 10.0 mi NE 4.6 mph - N/A   Clear
7:15 PM 57.2 °F 47.1 °F 69% 29.78 in 10.0 mi ENE 8.1 mph - N/A   Clear
7:35 PM 55.4 °F 47.3 °F 74% 29.80 in 10.0 mi Calm Calm - N/A   Clear
7:55 PM 55.2 °F 47.1 °F 74% 29.83 in 10.0 mi WNW 4.6 mph - N/A   Scattered Clouds
8:15 PM 54.0 °F 47.3 °F 78% 29.82 in 10.0 mi SSW 3.5 mph - N/A   Scattered Clouds
8:35 PM 54.3 °F 46.9 °F 76% 29.85 in 10.0 mi West 4.6 mph - N/A   Clear
8:55 PM 54.9 °F 46.6 °F 74% 29.87 in 10.0 mi SW 5.8 mph - N/A   Mostly Cloudy
9:15 PM 55.4 °F 46.4 °F 72% 29.85 in 10.0 mi SSW 6.9 mph - N/A   Mostly Cloudy
9:35 PM 54.5 °F 46.6 °F 75% 29.84 in 10.0 mi ESE 3.5 mph - N/A   Scattered Clouds
9:55 PM 52.7 °F 46.8 °F 80% 29.81 in 10.0 mi ESE 6.9 mph - N/A   Clear
10:15 PM 52.7 °F 46.6 °F 80% 29.83 in 10.0 mi NNE 9.2 mph - N/A   Clear
10:35 PM 52.5 °F 46.6 °F 80% 29.83 in 10.0 mi NNE 6.9 mph - N/A   Clear
10:55 PM 51.6 °F 46.6 °F 83% 29.84 in 10.0 mi North 8.1 mph - N/A   Clear
11:15 PM 51.1 °F 46.0 °F 83% 29.84 in 10.0 mi North 4.6 mph - N/A   Clear
11:35 PM 50.9 °F 45.5 °F 82% 29.84 in 10.0 mi WNW 3.5 mph - N/A   Clear
11:55 PM 50.5 °F 45.5 °F 83% 29.82 in 10.0 mi WSW 3.5 mph - N/A   Clear